OV1-9 R/B, 2622

Orbit data source: Space-Track

OV1-9 R/B, 2622 is space debris in LEO originally from a launch on Sun, 11 Dec 1966 UTC launched from the Air Force Western Test Range (AFWTR). Debris objects in space refer to the collection of defunct objects orbiting the Earth. Examples of debris include non-operational satellites, rocket bodies, and fragments generated from explosions, collisions, or faulty payload assembly.

Loading next visibility...
Identifier
2622, 1966-111D
Orbit
LEO
Last TLE update
1 day ago
Origin
Manufacturer
ABL
Mission
Spacecraft
Bus & Motor
ALTAIR, Unknown motor
Mass
125 kg wet, 125 kg dry
Launch date (UTC)
1966-12-11 (59 years ago)
Launch vehicle
Unknown
Launch site
Air Force Western Test Range (AFWTR)
Object type
Payload
Rocket body
Debris
Shape & HBR
Cyl, 2.1 m
Radar Cross Section
1.347 m², Medium (>0.1 m² and < 1m²)

Expand to show TLE details & history

TLE from 1 day ago
0 OV1-9 R/B
1 02622U 66111D   25172.17282141  .00000298  00000-0  13199-3 0  9995
2 02622  99.1056 246.5657 2223465 262.1299  72.3584 10.49160323207023
Epoch: 2025-06-21T04:08Z
TLE epoch observation values (Epoch: 2025-06-21T04:08:51.769Z)
Latitude
-0.00012°
Longitude
-85.26559°
Altitude
2,269.248 km
Speed
6.855 km/s
True Right ascension
16h 26m 15s
True Declination
0° 00' 00"
Sunlit
Object was in full shadow at epoch
Visualization orbit readout
Latitude
42.27808°
Longitude
-92.8023°
Altitude
3,815.093 km
Speed
5.749 km/s
Apparent Right ascension
15h 07m 25s
Apparent Declination
12° 57' 33"
Sunlit
Object is in daylight
Visualization observer readout
Local Sidereal Time
01:51:33
Azimuth
337.467° NNW
Elevation
-34.262°
Doppler factor
1
Orbital elements
Apogee altitude
4,392.607 km
Perigee altitude
474.181 km
Semi-major axis
8,811.531 km
Eccentricity
0.22235
Inclination
99.1056°
RAAN
246.5657°
Arg. of periapsis
262.1299°
True anomaly
Unknown
Mean anomaly
72.3584°
Eccentric anomaly
Unknown
Mean motion
2.62401 °/min
Orbital period
137.19 mins
BSTAR
0.00013199
Loading maneuver chart data...
Loading SW <> Apogee altitude chart data...
Loading historical data...
Loading historical data...
Loading historical data...
Loading historical data...
Loading historical data...
Loading historical data...
Loading historical data...
Other satellites on launch #111 in the year 1966 (1966-12-11 UTC)

OV1-9 R/B Visibility forecast

Observer location: undefined°, undefined°

Span
Click to sort rows by Start time (UTC) header in descending order
Start Az.
Max El. time (UTC)
Max El. Az.
Max El.
End time (UTC)
End Az.
26 mins2025-06-22 15:23:52.460Z23.803° NE2025-06-22 15:39:52.460Z75.626° E24.551°2025-06-22 15:49:52.460Z126.163° SE
33 mins2025-06-22 17:36:52.460Z12.934° NNE2025-06-22 17:57:52.460Z253.328° W44.996°2025-06-22 18:09:52.460Z198.327° SSW
29 mins2025-06-22 19:51:52.460Z6.943° NNE2025-06-22 20:07:52.460Z318.41° NNW29.572°2025-06-22 20:20:52.460Z260.036° W
18 mins2025-06-22 22:04:52.460Z8.737° NNE2025-06-22 22:13:52.460Z344.851° N15.256°2025-06-22 22:22:52.460Z318.192° NNW
18 mins2025-06-23 00:08:52.460Z36.779° NE2025-06-23 00:16:52.460Z15.526° NNE15.138°2025-06-23 00:26:52.460Z349.279° N
33 mins2025-06-23 02:07:52.460Z92.492° ESE2025-06-23 02:21:52.460Z43.339° NE28.728°2025-06-23 02:40:52.460Z350.785° N
38 mins2025-06-23 04:16:52.460Z150.736° SSE2025-06-23 04:31:52.460Z56.033° ENE44.416°2025-06-23 04:54:52.460Z348.068° N
34 mins2025-06-23 06:33:52.460Z214.905° SW2025-06-23 06:47:52.460Z278.821° WNW32.178°2025-06-23 07:07:52.460Z339.221° N
5 mins2025-06-23 14:27:52.460Z52.915° ENE2025-06-23 14:29:52.460Z59.526° ENE10.74°2025-06-23 14:32:52.460Z70.179° E
|